Flag for Germany Weather past 2 weeks in Wiesloch, Baden-Württemberg, Germany

Now
79 °F

Sunny.


Feels Like: 79 °F
Forecast: 62 / 79 °F
Wind: 5 mph from Northeast

Location: Baden Wurttemberg - Neuostheim

Current Time: Jul 23, 2014 at 10:14:02 PM

Latest Report: Jul 23, 2014 at 9:20 PM


Visibility: 10 mi

Pressure: 29.92 "Hg

Humidity: 45%

Dew point: 55 °F

Location of WieslochLocation

Historic Weather in Wiesloch — Graph

°F

Wiesloch temperature yesterday

Maximum temperature yesterday: 82 °F (at 3:50 PM)
Minimum temperature yesterday: 68 °F (at 5:20 AM)
Average temperature yesterday: 75 °F

Past Weeks' High & Low Weather Summary

 TemperatureHumidityPressure
High93 °F (Jul 18, 4:50 PM)100% (Jul 11, 5:20 AM)30.18 "Hg (Jul 11, 5:20 AM)
Low55 °F (Jul 9, 6:50 AM)20% (Jul 18, 5:50 PM)29.74 "Hg (Jul 9, 6:50 PM)
Average73 °F64%29.96 "Hg
* Reported Jul 8 8:20 PM — Jul 23 8:50 PM, Wiesloch, Weather by CustomWeather, © 2014

Note: Actual official high and low records may vary slightly from our data, if they occured in-between our weather recording intervals... More about our weather records

Advertising

Wiesloch weather history for previous 24 hours

 ConditionsComfort  
Time TempWeatherWind HumidityBarometerVisibility
8:50 PM
Jul 23
81 °FSunny.6 mph42%29.92 "Hg10 mi
8:20 PM82 °FSunny.8 mph37%29.92 "Hg10 mi
7:50 PM84 °FPassing clouds.10 mph33%29.92 "HgN/A
7:20 PM84 °FSunny.9 mph35%29.92 "Hg10 mi
6:50 PM84 °FPassing clouds.9 mph35%29.92 "HgN/A
6:20 PM84 °FSunny.15 mph35%29.92 "Hg10 mi
5:50 PM84 °FPassing clouds.10 mph40%29.92 "HgN/A
5:20 PM84 °FPassing clouds.9 mph37%29.92 "HgN/A
4:50 PM86 °FSunny.12 mph31%29.95 "Hg10 mi
4:20 PM86 °FSunny.13 mph31%29.95 "Hg10 mi
3:50 PM84 °FSunny.13 mph33%29.95 "Hg10 mi
2:50 PM84 °FPassing clouds.14 mph35%29.95 "HgN/A
1:50 PM82 °FSunny.13 mph40%29.98 "Hg10 mi
1:20 PM82 °FSunny.10 mph40%29.98 "Hg10 mi
12:50 PM82 °FPassing clouds.12 mph40%29.98 "HgN/A
11:50 AM81 °FPassing clouds.8 mph51%30.01 "HgN/A
11:20 AM79 °FPassing clouds.7 mph51%30.01 "HgN/A
10:50 AM77 °FSunny.6 mph54%30.01 "Hg10 mi
10:20 AM77 °FPassing clouds.7 mph54%30.01 "HgN/A
9:50 AM75 °FSunny.8 mph57%30.01 "Hg10 mi
7:50 AM72 °FSunny.7 mph65%30.01 "Hg10 mi
7:20 AM70 °FSunny.5 mph73%30.01 "Hg10 mi
6:50 AM68 °FSunny.6 mph78%30.01 "Hg10 mi
6:20 AM66 °FClear.6 mph83%30.01 "Hg10 mi
5:50 AM66 °FClear.6 mph83%30.01 "Hg10 mi
Weather by CustomWeather, © 2014

See weather overviewHow to use our weather pages